Location: Twillingate Astronomical Observatory
(49.6173°N, 54.7580°W)
Time: 03:54:29
(UTC-03:-30)

Amateur Radio Satellites - All Passes

Search period start: 20 December 2014 03:24
Search period end: 21 December 2014 03:24
Location: Twillingate Astronomical Observatory, 49.6173°N, 54.7580°W

Satellite Date Start Highest point End Downlink Frequencies (MHz)
Time Altitude Azimuth
Oscar 19 20 Dec 03:41:08 03:44:30 18° 305° (NW) 03:47:52 437.125/150
Gurwin Techsat 1B 20 Dec 03:44:03 03:49:11 51° 292° (WNW) 03:54:18 435.225
VERMONT LUNAR 20 Dec 03:48:47 03:49:52 11° 159° (SSE) 03:50:58 437.305
AIST 1 20 Dec 03:50:09 03:54:26 70° 263° (W) 03:58:40
ITAMSAT 1 20 Dec 03:54:16 03:58:41 29° 298° (WNW) 04:03:05 435.822/435.867
MOZHAYETS 4 20 Dec 03:58:19 04:02:56 72° 73° (ENE) 04:07:37
HORYU 2 20 Dec 04:12:47 04:17:13 54° 290° (WNW) 04:21:37 437.375
GONETS M04 20 Dec 04:20:37 04:27:26 26° 78° (ENE) 04:34:15
AO-7 20 Dec 04:23:03 04:31:21 60° 104° (ESE) 04:39:35 29.400- 29.500
SO-50 20 Dec 04:48:49 04:53:33 48° 42° (NE) 04:58:18 436.795
PRISM 20 Dec 05:00:05 05:04:12 53° 70° (ENE) 05:08:20 437.425
Cubesat XI-IV 20 Dec 05:05:16 05:07:35 13° 85° (E) 05:09:53 437.490
JAS-2 20 Dec 05:07:30 05:13:14 54° 99° (E) 05:18:25 435.910
STRAND 1 20 Dec 05:11:30 05:16:07 36° 64° (ENE) 05:20:45 437.568
CUBESAT XI-V 20 Dec 05:19:29 05:23:52 41° 68° (ENE) 05:28:15 437.345
VERMONT LUNAR 20 Dec 05:24:52 05:27:24 19° 176° (S) 05:29:56 437.305
Gurwin Techsat 1B 20 Dec 05:27:09 05:28:00 10° 312° (NW) 05:28:51 435.225
PHONESAT 2.4 20 Dec 05:35:09 05:37:45 19° 173° (S) 05:40:21 2401.200-2431.200
CUTE-I 20 Dec 05:37:20 05:41:35 24° 92° (E) 05:45:48 437.470
MOZHAYETS 4 20 Dec 05:37:52 05:40:42 16° 272° (W) 05:43:32
GONETS M04 20 Dec 06:14:23 06:23:15 83° 280° (W) 06:32:09
AO-7 20 Dec 06:16:14 06:23:53 42° 305° (NW) 06:31:31 29.400- 29.500
SO-50 20 Dec 06:29:36 06:34:01 34° 242° (WSW) 06:38:26 436.795
PRISM 20 Dec 06:37:07 06:40:03 18° 269° (W) 06:43:00 437.425
Cubesat XI-IV 20 Dec 06:43:12 06:48:33 80° 105° (ESE) 06:53:52 437.490
STRAND 1 20 Dec 06:50:34 06:55:18 37° 263° (W) 07:00:02 437.568
JAS-2 20 Dec 06:53:06 06:58:00 28° 302° (WNW) 07:02:32 435.910
CUBESAT XI-V 20 Dec 06:57:29 07:01:27 27° 266° (W) 07:05:26 437.345
VERMONT LUNAR 20 Dec 07:02:50 07:04:59 15° 193° (SSW) 07:07:08 437.305
PHONESAT 2.4 20 Dec 07:13:16 07:15:43 17° 191° (S) 07:18:10 2401.200-2431.200
CUTE-I 20 Dec 07:16:48 07:22:02 58° 291° (WNW) 07:27:14 437.470
SEEDS 20 Dec 07:55:01 07:56:07 11° 86° (E) 07:57:13 437.485
CUTE 1.7 + AOD 2 20 Dec 07:56:44 07:58:51 13° 87° (E) 08:00:58 437.475
GOMX 1 20 Dec 08:01:08 08:03:37 14° 88° (E) 08:06:11 467.674
TIGRISAT 20 Dec 08:05:53 08:06:40 10° 52° (NE) 08:07:28 435.000
AO-7 20 Dec 08:10:29 08:14:31 15° 329° (NNW) 08:18:32 29.400- 29.500
GONETS M04 20 Dec 08:14:53 08:21:37 23° 305° (NW) 08:28:22
Cubesat XI-IV 20 Dec 08:24:20 08:28:03 20° 304° (NW) 08:31:47 437.490
DOVE 4 20 Dec 08:28:40 08:32:04 19° 91° (E) 08:35:35 437.250
YUBILEINY 20 Dec 08:29:04 08:33:47 15° 46° (NE) 08:38:28 435.215
HO-68 20 Dec 08:30:57 08:37:32 38° 96° (E) 08:44:03 435.675
UNISAT 6 20 Dec 08:32:10 08:35:09 18° 59° (ENE) 08:38:11 437.425
Oscar 11 20 Dec 08:32:12 08:32:55 10° 85° (E) 08:33:38 145.826/435.025
MaSat-1 20 Dec 08:32:50 08:33:57 13° 111° (ESE) 08:35:03 437.345
DUCHIFAT 1 20 Dec 08:40:23 08:42:31 14° 57° (ENE) 08:44:39 145.980
DANDE 20 Dec 08:42:02 08:43:51 13° 77° (ENE) 08:45:53 436.750
BUGSAT 1 20 Dec 08:43:02 08:44:27 12° 56° (ENE) 08:45:51 437.445
CUBEBUG 2 20 Dec 08:47:18 08:48:37 11° 86° (E) 08:49:57 437.445
AAUSAT CUBESAT 2 20 Dec 08:48:55 08:52:36 28° 94° (E) 08:56:15 437.432
QB50P2 20 Dec 08:52:38 08:55:30 18° 60° (ENE) 08:58:22 145.880/145.840
CINEMA 3 20 Dec 08:58:14 09:01:56 23° 92° (E) 09:05:43 145.822/145.860
CUTE-I 20 Dec 08:59:12 09:01:03 12° 311° (NW) 09:02:54 437.470
CANX-2 20 Dec 09:00:04 09:04:22 59° 101° (E) 09:08:37 2200.000
ZACube-1 20 Dec 09:00:43 09:01:44 11° 85° (E) 09:02:45 437.345
POLYITAN 1 20 Dec 09:00:53 09:04:03 21° 62° (ENE) 09:07:14 437.675
ANTELSAT 20 Dec 09:02:50 09:06:45 32° 65° (ENE) 09:10:46 437.575/2403.000
NANOSAT C BR1 20 Dec 09:03:32 09:06:46 22° 62° (ENE) 09:10:01 145.865
BRITE-PL 20 Dec 09:08:08 09:12:43 72° 103° (ESE) 09:17:41 437.365/2234.400
QB50P1 20 Dec 09:17:21 09:20:59 29° 65° (ENE) 09:24:38 145.935-145.965
COMPASS 1 20 Dec 09:23:30 09:27:47 69° 102° (ESE) 09:32:01 437.405
UWE-3 20 Dec 09:24:53 09:28:27 22° 92° (E) 09:32:02 435.000/436.395/437.385
O/OREOS (USA 219) 20 Dec 09:25:42 09:29:47 33° 53° (NE) 09:33:53 437.305
FUNcube-1 20 Dec 09:25:49 09:29:02 19° 91° (E) 09:32:16 145.935
SEEDS 20 Dec 09:28:16 09:32:37 89° 104° (ESE) 09:36:54 437.485
CUTE 1.7 + AOD 2 20 Dec 09:31:00 09:35:20 76° 286° (WNW) 09:39:38 437.475
CUSAT 1 20 Dec 09:33:13 09:36:56 50° 94° (E) 09:41:57 437.405
GOMX 1 20 Dec 09:37:36 09:42:16 84° 285° (WNW) 09:47:16 467.674
TIGRISAT 20 Dec 09:38:12 09:42:31 66° 72° (ENE) 09:47:00 435.000
DX 1 20 Dec 09:42:05 09:46:08 37° 98° (E) 09:50:10 434.975-435.025
AISAT 20 Dec 09:42:08 09:44:43 15° 89° (E) 09:47:17 437.250
DELFI C3 20 Dec 09:43:27 09:47:25 43° 98° (E) 09:51:21 145.870
POPSAT HIP 1 20 Dec 09:45:25 09:49:30 52° 71° (ENE) 09:53:37 437.405
50 SAT 20 Dec 09:46:30 09:48:39 14° 89° (E) 09:50:48 437.505
HUMSAT D 20 Dec 10:03:25 10:07:03 25° 94° (E) 10:10:40 437.325/437.525
MaSat-1 20 Dec 10:05:18 10:07:08 21° 308° (NW) 10:08:56 437.345
Oscar 11 20 Dec 10:05:23 10:09:48 84° 104° (ESE) 10:14:10 145.826/435.025
DOVE 4 20 Dec 10:05:34 10:10:11 62° 288° (WNW) 10:15:05 437.250
UNISAT 6 20 Dec 10:07:06 10:11:27 66° 258° (WSW) 10:15:58 437.425
RS-15 20 Dec 10:09:23 10:15:49 18° 97° (E) 10:22:15 29.354- 29.394
DUCHIFAT 1 20 Dec 10:13:35 10:17:48 82° 256° (WSW) 10:22:02 145.980
UKube-1 20 Dec 10:13:36 10:17:57 73° 104° (ESE) 10:22:16 .
BUGSAT 1 20 Dec 10:15:12 10:19:18 86° 75° (ENE) 10:23:23 437.445
HO-68 20 Dec 10:18:34 10:25:29 54° 297° (WNW) 10:32:22 435.675
CUBEBUG 2 20 Dec 10:21:24 10:26:01 81° 103° (ESE) 10:30:45 437.445
DANDE 20 Dec 10:22:31 10:26:12 65° 286° (WNW) 10:31:15 436.750
AAUSAT CUBESAT 2 20 Dec 10:24:27 10:28:19 34° 293° (WNW) 10:32:09 437.432
YUBILEINY 20 Dec 10:24:29 10:33:02 56° 72° (ENE) 10:41:31 435.215
QB50P2 20 Dec 10:26:51 10:31:01 59° 259° (W) 10:35:13 145.880/145.840
ZACube-1 20 Dec 10:34:17 10:38:49 81° 104° (ESE) 10:43:24 437.345
VELOX 1 20 Dec 10:34:32 10:38:48 45° 99° (E) 10:43:03 145.980
CINEMA 3 20 Dec 10:34:51 10:39:23 52° 289° (WNW) 10:44:06 145.822/145.860
POLYITAN 1 20 Dec 10:35:38 10:39:43 48° 260° (W) 10:43:50 437.675
ESTCUBE 1 20 Dec 10:35:41 10:39:11 22° 92° (E) 10:42:39 437.505/2401.250
CANX-2 20 Dec 10:36:53 10:39:55 19° 299° (WNW) 10:42:56 2200.000
NANOSAT C BR1 20 Dec 10:38:21 10:42:24 46° 261° (W) 10:46:29 145.865
ANTELSAT 20 Dec 10:39:34 10:43:32 33° 265° (W) 10:47:37 437.575/2403.000
BRITE-PL 20 Dec 10:47:48 10:50:51 18° 300° (WNW) 10:54:02 437.365/2234.400
QB50P1 20 Dec 10:53:00 10:56:49 33° 264° (W) 11:00:40 145.935-145.965
COMPASS 1 20 Dec 11:00:23 11:03:01 16° 301° (WNW) 11:05:38 437.405
UWE-3 20 Dec 11:00:49 11:05:14 51° 290° (WNW) 11:09:44 435.000/436.395/437.385
FUNcube-1 20 Dec 11:01:18 11:05:43 58° 288° (WNW) 11:10:12 145.935
O/OREOS (USA 219) 20 Dec 11:05:06 11:09:13 36° 253° (WSW) 11:13:21 437.305
SEEDS 20 Dec 11:05:46 11:07:48 13° 303° (WNW) 11:09:49 437.485
CUTE 1.7 + AOD 2 20 Dec 11:09:09 11:10:30 11° 305° (NW) 11:11:51 437.475
TIGRISAT 20 Dec 11:17:05 11:19:47 16° 272° (W) 11:22:32 435.000
AISAT 20 Dec 11:17:25 11:21:50 70° 287° (WNW) 11:26:15 437.250
GOMX 1 20 Dec 11:17:27 11:19:48 14° 303° (WNW) 11:22:14 467.674
CUSAT 1 20 Dec 11:17:27 11:20:40 21° 304° (NW) 11:24:37 437.405
DX 1 20 Dec 11:18:34 11:22:17 28° 296° (WNW) 11:25:58 434.975-435.025
DELFI C3 20 Dec 11:19:14 11:22:28 22° 297° (WNW) 11:25:40 145.870
50 SAT 20 Dec 11:20:12 11:24:21 69° 287° (WNW) 11:28:29 437.505
POPSAT HIP 1 20 Dec 11:22:49 11:25:44 18° 269° (W) 11:28:40 437.405
CUBEBUG 1 20 Dec 11:25:06 11:29:24 59° 101° (E) 11:33:40 437.445
HUMSAT D 20 Dec 11:38:56 11:42:58 39° 292° (WNW) 11:47:00 437.325/437.525
Oscar 11 20 Dec 11:43:02 11:45:22 14° 303° (WNW) 11:47:41 145.826/435.025
Oscar 19 20 Dec 11:43:28 11:47:59 32° 63° (ENE) 11:52:32 437.125/150
DOVE 4 20 Dec 11:46:10 11:47:09 11° 306° (NW) 11:48:08 437.250
AO-7 20 Dec 11:49:49 11:52:36 12° 25° (NNE) 11:55:23 29.400- 29.500
UKube-1 20 Dec 11:50:58 11:53:36 16° 302° (WNW) 11:56:14 .
Gurwin Techsat 1B 20 Dec 11:53:45 11:55:57 13° 50° (NE) 11:58:10 435.225
BUGSAT 1 20 Dec 11:54:35 11:55:24 11° 273° (W) 11:56:13 437.445
ITAMSAT 1 20 Dec 11:59:21 12:03:01 20° 57° (ENE) 12:06:42 435.822/435.867
CUBEBUG 2 20 Dec 11:59:24 12:02:10 16° 302° (WNW) 12:04:59 437.445
HO-68 20 Dec 12:07:54 12:11:43 15° 319° (NW) 12:15:31 435.675
VELOX 1 20 Dec 12:11:37 12:15:10 24° 298° (WNW) 12:18:43 145.980
ESTCUBE 1 20 Dec 12:11:58 12:16:20 49° 291° (WNW) 12:20:39 437.505/2401.250
ZACube-1 20 Dec 12:11:59 12:14:38 16° 302° (WNW) 12:17:18 437.345
RS-15 20 Dec 12:15:08 12:25:52 68° 120° (ESE) 12:36:44 29.354- 29.394
YUBILEINY 20 Dec 12:21:44 12:29:35 40° 275° (W) 12:37:25 435.215
BEESAT 3 20 Dec 12:28:12 12:29:23 11° 109° (ESE) 12:30:34 437.485
TISAT 1 20 Dec 12:32:53 12:37:07 79° 104° (ESE) 12:41:21 437.305
SPROUT 20 Dec 12:34:48 12:39:07 78° 103° (ESE) 12:43:25 437.525
AISAT 20 Dec 12:56:27 12:57:40 11° 307° (NW) 12:58:53 437.250
CUBEBUG 1 20 Dec 13:02:22 13:05:23 19° 300° (WNW) 13:08:24 437.445
BEESAT 2 20 Dec 13:05:18 13:08:33 23° 115° (ESE) 13:11:51 435.950
SWISSCUBE 20 Dec 13:08:14 13:12:34 33° 96° (E) 13:16:51 437.505
ITUPSAT 1 20 Dec 13:08:35 13:12:50 31° 95° (E) 13:17:03 437.325
Oscar 19 20 Dec 13:22:19 13:27:12 43° 262° (W) 13:32:08 437.125/150
PCSat 20 Dec 13:22:35 13:27:06 28° 111° (ESE) 13:31:40 145.827
M-CUBED/EXP-1 PRIME 20 Dec 13:29:17 13:32:14 17° 94° (E) 13:35:01 437.505
Gurwin Techsat 1B 20 Dec 13:29:42 13:34:56 63° 70° (ENE) 13:40:12 435.225
BEESAT 20 Dec 13:33:07 13:37:49 52° 100° (E) 13:42:27 436.000
AO-7 20 Dec 13:35:44 13:42:52 33° 50° (NE) 13:50:02 29.400- 29.500
ITAMSAT 1 20 Dec 13:36:48 13:41:58 76° 256° (WSW) 13:47:11 435.822/435.867
HORYU 2 20 Dec 13:39:28 13:43:25 32° 65° (ENE) 13:47:25 437.375
JAS-2 20 Dec 13:43:21 13:45:49 12° 45° (NE) 13:48:12 435.910
ISS 20 Dec 13:52:34 13:55:08 21° 142° (SE) 13:57:42 145.825
BEESAT 3 20 Dec 14:02:43 14:06:50 81° 128° (SE) 14:11:02 437.485
AIST 2 20 Dec 14:07:45 14:11:47 43° 121° (ESE) 14:15:53 435.215
TISAT 1 20 Dec 14:10:08 14:12:24 14° 302° (WNW) 14:14:40 437.305
SPROUT 20 Dec 14:12:15 14:14:39 15° 302° (WNW) 14:17:04 437.525
GONETS M04 20 Dec 14:23:35 14:29:10 18° 49° (NE) 14:34:41
RS-15 20 Dec 14:28:12 14:38:47 52° 328° (NNW) 14:49:37 29.354- 29.394
AUBIESAT-1 20 Dec 14:37:47 14:42:16 71° 108° (ESE) 14:46:21 437.475
STARS 20 Dec 14:39:19 14:43:27 37° 97° (E) 14:47:33 437.465
KKS-1 20 Dec 14:42:11 14:46:36 56° 101° (E) 14:51:00 437.445
BEESAT 2 20 Dec 14:42:27 14:46:31 53° 315° (NW) 14:50:39 435.950
SWISSCUBE 20 Dec 14:46:06 14:50:26 35° 295° (WNW) 14:54:45 437.505
ITUPSAT 1 20 Dec 14:46:23 14:50:48 38° 294° (WNW) 14:55:11 437.325
M-CUBED/EXP-1 PRIME 20 Dec 15:03:15 15:07:45 61° 295° (WNW) 15:11:50 437.505
PCSat 20 Dec 15:04:51 15:10:12 59° 311° (NW) 15:15:36 145.827
Gurwin Techsat 1B 20 Dec 15:11:18 15:15:21 22° 269° (W) 15:19:25 435.225
BEESAT 20 Dec 15:11:33 15:15:22 24° 299° (WNW) 15:19:10 436.000
HORYU 2 20 Dec 15:15:59 15:20:03 34° 263° (W) 15:24:10 437.375
ITAMSAT 1 20 Dec 15:20:37 15:22:22 12° 275° (W) 15:24:07 435.822/435.867
JAS-2 20 Dec 15:22:24 15:29:26 46° 65° (ENE) 15:35:50 435.910
AO-7 20 Dec 15:26:41 15:35:01 77° 252° (WSW) 15:43:26 29.400- 29.500
CUTE-I 20 Dec 15:27:41 15:29:31 12° 49° (NE) 15:31:22 437.470
ISS 20 Dec 15:28:04 15:31:23 84° 161° (SSE) 15:34:41 145.825
BEESAT 3 20 Dec 15:42:15 15:45:31 22° 329° (NNW) 15:48:49 437.485
AIST 2 20 Dec 15:46:37 15:50:31 33° 322° (NW) 15:54:29 435.215
MOZHAYETS 4 20 Dec 15:51:02 15:53:10 13° 86° (E) 15:55:17
AUBIESAT-1 20 Dec 16:13:38 16:16:40 18° 309° (NW) 16:19:34 437.475
STARS 20 Dec 16:16:00 16:19:50 29° 296° (WNW) 16:23:39 437.465
GONETS M04 20 Dec 16:19:22 16:28:08 64° 75° (ENE) 16:36:45
KKS-1 20 Dec 16:19:35 16:22:53 21° 300° (WNW) 16:26:12 437.445
BEESAT 2 20 Dec 16:23:06 16:25:41 16° 337° (NNW) 16:28:17 435.950
AIST 1 20 Dec 16:24:00 16:28:17 54° 95° (E) 16:32:33
Cubesat XI-IV 20 Dec 16:30:37 16:35:21 34° 63° (ENE) 16:40:05 437.490
M-CUBED/EXP-1 PRIME 20 Dec 16:40:19 16:41:47 11° 315° (NW) 16:43:13 437.505
RS-15 20 Dec 16:44:12 16:54:09 37° 1° (N) 17:04:24 29.354- 29.394
PCSat 20 Dec 16:50:56 16:54:46 19° 334° (NNW) 16:58:37 145.827
CUTE-I 20 Dec 17:03:20 17:08:32 58° 69° (ENE) 17:13:46 437.470
ISS 20 Dec 17:04:50 17:08:06 58° 0° (N) 17:11:21 145.825
JAS-2 20 Dec 17:07:15 17:14:28 46° 263° (W) 17:21:05 435.910
HO-68 20 Dec 17:21:38 17:24:41 13° 38° (NE) 17:27:43 435.675
AO-7 20 Dec 17:23:44 17:29:12 19° 274° (W) 17:34:44 29.400- 29.500
BEESAT 3 20 Dec 17:24:20 17:25:13 11° 352° (N) 17:26:06 437.485
MOZHAYETS 4 20 Dec 17:26:23 17:31:03 86° 285° (WNW) 17:35:40
AIST 2 20 Dec 17:28:22 17:30:24 13° 344° (NNW) 17:32:27 435.215
MaSat-1 20 Dec 17:58:08 18:00:28 69° 241° (WSW) 18:02:56 437.345
AIST 1 20 Dec 18:03:12 18:06:18 19° 294° (WNW) 18:09:24
BEESAT 2 20 Dec 18:05:21 18:05:40 10° 1° (N) 18:06:00 435.950
Cubesat XI-IV 20 Dec 18:10:18 18:15:21 43° 262° (W) 18:20:25 437.490
PRISM 20 Dec 18:14:23 18:18:27 47° 100° (E) 18:22:26 437.425
GONETS M04 20 Dec 18:16:51 18:24:26 35° 278° (W) 18:31:58
CUSAT 1 20 Dec 18:23:28 18:28:41 20° 56° (ENE) 18:34:25 437.405
CANX-2 20 Dec 18:25:18 18:26:24 11° 55° (NE) 18:27:30 2200.000
PCSat 20 Dec 18:38:15 18:40:27 12° 0° (N) 18:42:38 145.827
ISS 20 Dec 18:41:31 18:44:49 81° 200° (SSW) 18:48:06 145.825
CUTE-I 20 Dec 18:44:45 18:48:59 24° 268° (W) 18:53:15 437.470
COMPASS 1 20 Dec 18:46:48 18:48:26 12° 56° (NE) 18:50:04 437.405
BRITE-PL 20 Dec 18:47:41 18:50:16 16° 60° (ENE) 18:52:53 437.365/2234.400
CUBESAT XI-V 20 Dec 18:49:00 18:53:34 56° 100° (E) 18:58:04 437.345
SEEDS 20 Dec 18:51:14 18:53:43 15° 58° (ENE) 18:56:12 437.485
CUTE 1.7 + AOD 2 20 Dec 18:54:01 18:56:56 18° 60° (ENE) 18:59:52 437.475
STRAND 1 20 Dec 18:56:07 19:01:07 53° 100° (E) 19:06:06 437.568
RS-15 20 Dec 18:58:35 19:09:27 55° 34° (NE) 19:20:45 29.354- 29.394
BEESAT 3 20 Dec 19:03:21 19:05:14 13° 17° (NNE) 19:07:06 437.485
HO-68 20 Dec 19:03:57 19:10:41 46° 61° (ENE) 19:17:26 435.675
MOZHAYETS 4 20 Dec 19:05:14 19:07:35 14° 304° (NW) 19:09:54
AIST 2 20 Dec 19:09:27 19:10:53 11° 9° (N) 19:12:19 435.215
DANDE 20 Dec 19:14:01 19:20:31 34° 65° (ENE) 19:28:00 436.750
GOMX 1 20 Dec 19:14:07 19:17:14 21° 62° (ENE) 19:20:25 467.674
Oscar 11 20 Dec 19:30:24 19:33:02 16° 58° (ENE) 19:35:41 145.826/435.025
UKube-1 20 Dec 19:38:58 19:41:34 16° 58° (ENE) 19:44:11 .
DOVE 4 20 Dec 19:39:20 19:42:51 27° 65° (ENE) 19:46:27 437.250
BEESAT 2 20 Dec 19:42:52 19:45:38 17° 25° (NNE) 19:48:23 435.950
AAUSAT CUBESAT 2 20 Dec 19:44:25 19:48:14 34° 67° (ENE) 19:52:05 437.432
CUBEBUG 2 20 Dec 19:49:54 19:52:26 16° 58° (ENE) 19:55:00 437.445
PRISM 20 Dec 19:50:33 19:53:42 21° 299° (WNW) 19:56:49 437.425
CANX-2 20 Dec 19:57:17 20:01:33 73° 74° (ENE) 20:05:52 2200.000
ZACube-1 20 Dec 20:00:51 20:03:16 15° 58° (ENE) 20:05:43 437.345
VELOX 1 20 Dec 20:03:58 20:05:11 11° 53° (NE) 20:06:25 145.980
CINEMA 3 20 Dec 20:04:53 20:08:33 30° 65° (ENE) 20:12:20 145.822/145.860
CUSAT 1 20 Dec 20:05:29 20:12:54 71° 76° (ENE) 20:21:23 437.405
ISS 20 Dec 20:18:34 20:21:03 20° 219° (SW) 20:23:31 145.825
COMPASS 1 20 Dec 20:19:14 20:23:28 84° 74° (ENE) 20:27:45 437.405
PCSat 20 Dec 20:22:12 20:26:06 20° 27° (NNE) 20:29:59 145.827
BRITE-PL 20 Dec 20:24:17 20:28:24 61° 259° (W) 20:32:32 437.365/2234.400
SEEDS 20 Dec 20:24:45 20:29:00 75° 257° (WSW) 20:33:19 437.485
FUNcube-1 20 Dec 20:26:22 20:29:47 24° 63° (ENE) 20:33:16 145.935
UWE-3 20 Dec 20:26:48 20:30:25 28° 65° (ENE) 20:34:07 435.000/436.395/437.385
CUBESAT XI-V 20 Dec 20:27:11 20:30:39 21° 299° (WNW) 20:34:06 437.345
CUTE 1.7 + AOD 2 20 Dec 20:28:13 20:32:27 60° 259° (W) 20:36:44 437.475
STRAND 1 20 Dec 20:35:52 20:40:02 26° 300° (WNW) 20:44:11 437.568
DELFI C3 20 Dec 20:36:07 20:40:06 50° 71° (ENE) 20:44:07 145.870
50 SAT 20 Dec 20:39:17 20:41:53 17° 60° (ENE) 20:44:30 437.505
BEESAT 3 20 Dec 20:40:46 20:44:37 34° 39° (NE) 20:48:26 437.485
DX 1 20 Dec 20:41:52 20:46:07 57° 71° (ENE) 20:50:24 434.975-435.025
AISAT 20 Dec 20:44:21 20:47:55 24° 62° (ENE) 20:51:29 437.250
AIST 2 20 Dec 20:47:27 20:51:01 24° 32° (NNE) 20:54:32 435.215
SO-50 20 Dec 20:48:25 20:52:19 29° 117° (ESE) 20:56:21 436.795
GOMX 1 20 Dec 20:51:10 20:55:08 45° 261° (W) 20:59:11 467.674
HO-68 20 Dec 20:51:35 20:58:25 46° 261° (W) 21:05:18 435.675
CUBEBUG 1 20 Dec 20:52:19 20:54:14 13° 56° (NE) 20:56:09 437.445
DANDE 20 Dec 20:57:08 21:04:27 70° 262° (W) 21:12:59 436.750
HUMSAT D 20 Dec 21:00:04 21:03:44 31° 66° (ENE) 21:07:28 437.325/437.525
Oscar 11 20 Dec 21:04:21 21:08:41 74° 257° (WSW) 21:13:04 145.826/435.025
RS-15 20 Dec 21:11:18 21:22:19 66° 240° (WSW) 21:33:50 29.354- 29.394
UKube-1 20 Dec 21:12:53 21:17:13 75° 257° (WSW) 21:21:34 .
DOVE 4 20 Dec 21:16:48 21:20:34 33° 264° (W) 21:24:26 437.250
AAUSAT CUBESAT 2 20 Dec 21:20:18 21:23:57 28° 266° (W) 21:27:37 437.432
BEESAT 2 20 Dec 21:20:32 21:24:43 61° 47° (NE) 21:28:51 435.950
CUBEBUG 2 20 Dec 21:24:25 21:28:36 71° 258° (WSW) 21:32:56 437.445
TIGRISAT 20 Dec 21:28:00 21:29:22 11° 85° (E) 21:30:44 435.000
ZACube-1 20 Dec 21:34:53 21:39:05 75° 257° (WSW) 21:43:24 437.345
CANX-2 20 Dec 21:35:50 21:38:01 14° 272° (W) 21:40:13 2200.000
VELOX 1 20 Dec 21:36:35 21:40:59 71° 73° (ENE) 21:45:24 145.980
ESTCUBE 1 20 Dec 21:39:32 21:43:38 34° 66° (ENE) 21:47:44 437.505/2401.250
YUBILEINY 20 Dec 21:41:55 21:44:26 12° 67° (ENE) 21:46:57 435.215
CINEMA 3 20 Dec 21:42:03 21:45:46 31° 265° (W) 21:49:36 145.822/145.860
CUSAT 1 20 Dec 21:49:10 21:55:39 32° 273° (W) 22:02:49 437.405
UNISAT 6 20 Dec 21:55:26 21:58:59 21° 91° (E) 22:02:32 437.425
TISAT 1 20 Dec 21:56:18 21:58:34 14° 58° (ENE) 22:00:51 437.305
DUCHIFAT 1 20 Dec 21:56:21 21:58:07 12° 88° (E) 21:59:54 145.980
COMPASS 1 20 Dec 21:58:16 21:59:48 12° 274° (W) 22:01:20 437.405
SPROUT 20 Dec 21:59:39 22:02:00 15° 58° (ENE) 22:04:22 437.525
FUNcube-1 20 Dec 22:01:59 22:05:57 40° 262° (W) 22:10:02 145.935
UWE-3 20 Dec 22:03:03 22:06:53 34° 264° (W) 22:10:50 435.000/436.395/437.385
PCSat 20 Dec 22:05:13 22:10:37 61° 50° (NE) 22:15:59 145.827
QB50P2 20 Dec 22:09:05 22:11:55 17° 90° (E) 22:14:44 145.880/145.840
50 SAT 20 Dec 22:12:43 22:16:41 59° 259° (W) 22:20:44 437.505
DELFI C3 20 Dec 22:12:45 22:15:40 19° 269° (W) 22:18:36 145.870
POLYITAN 1 20 Dec 22:17:38 22:20:53 21° 92° (E) 22:24:07 437.675
BEESAT 3 20 Dec 22:18:57 22:22:52 39° 239° (WSW) 22:26:44 437.485
DX 1 20 Dec 22:19:47 22:22:44 18° 269° (W) 22:25:42 434.975-435.025
NANOSAT C BR1 20 Dec 22:19:47 22:23:03 21° 92° (E) 22:26:19 145.865
AISAT 20 Dec 22:20:06 22:24:20 44° 261° (W) 22:28:35 437.250
CUBEBUG 1 20 Dec 22:25:34 22:29:56 85° 74° (ENE) 22:34:19 437.445
AIST 2 20 Dec 22:25:46 22:30:05 74° 233° (SW) 22:34:20 435.215
ANTELSAT 20 Dec 22:26:48 22:31:14 39° 97° (E) 22:35:40 437.575/2403.000
SO-50 20 Dec 22:28:10 22:32:39 51° 317° (NW) 22:37:19 436.795
QB50P1 20 Dec 22:33:54 22:37:38 29° 95° (E) 22:41:21 145.935-145.965
HUMSAT D 20 Dec 22:35:54 22:39:33 30° 265° (W) 22:43:16 437.325/437.525
DANDE 20 Dec 22:42:22 22:47:01 18° 280° (W) 22:52:03 436.750
SWISSCUBE 20 Dec 22:45:26 22:46:49 11° 51° (NE) 22:48:12 437.505
ITUPSAT 1 20 Dec 22:46:30 22:47:22 10° 51° (NE) 22:48:15 437.325
M-CUBED/EXP-1 PRIME 20 Dec 22:50:43 22:51:59 11° 44° (NE) 22:53:15 437.505
BEESAT 2 20 Dec 22:59:31 23:02:36 20° 246° (WSW) 23:05:39 435.950
TIGRISAT 20 Dec 23:02:09 23:06:52 80° 104° (ESE) 23:11:35 435.000
POPSAT HIP 1 20 Dec 23:02:19 23:06:31 54° 101° (E) 23:10:43 437.405
BEESAT 20 Dec 23:08:37 23:11:31 16° 56° (NE) 23:14:26 436.000
VELOX 1 20 Dec 23:15:33 23:18:04 15° 271° (W) 23:20:36 145.980
ESTCUBE 1 20 Dec 23:16:29 23:20:32 31° 264° (W) 23:24:36 437.505/2401.250
RS-15 20 Dec 23:25:50 23:32:26 18° 264° (W) 23:39:14 29.354- 29.394
BUGSAT 1 20 Dec 23:28:52 23:32:56 83° 104° (ESE) 23:37:01 437.445
TISAT 1 20 Dec 23:29:39 23:33:51 78° 256° (WSW) 23:38:05 437.305
DUCHIFAT 1 20 Dec 23:30:17 23:34:33 80° 286° (WNW) 23:38:49 145.980
YUBILEINY 20 Dec 23:30:43 23:39:06 54° 90° (E) 23:47:28 435.215
UNISAT 6 20 Dec 23:31:29 23:36:06 56° 289° (WNW) 23:40:43 437.425
SPROUT 20 Dec 23:33:16 23:37:32 79° 257° (WSW) 23:41:51 437.525
QB50P2 20 Dec 23:44:00 23:48:12 57° 289° (WNW) 23:52:24 145.880/145.840
O/OREOS (USA 219) 20 Dec 23:44:19 23:46:47 15° 99° (E) 23:49:16 437.305
PCSat 20 Dec 23:49:12 23:53:41 27° 250° (WSW) 23:58:07 145.827
POLYITAN 1 20 Dec 23:52:57 23:57:04 47° 290° (WNW) 00:01:12 437.675
NANOSAT C BR1 20 Dec 23:55:05 23:59:10 45° 291° (WNW) 00:03:14 145.865
AUBIESAT-1 20 Dec 23:56:09 00:00:21 30° 58° (ENE) 00:04:34 437.475
ANTELSAT 21 Dec 00:03:49 00:07:55 30° 295° (WNW) 00:12:02 437.575/2403.000
CUBEBUG 1 21 Dec 00:05:17 00:06:56 12° 273° (W) 00:08:35 437.445
AIST 2 21 Dec 00:07:10 00:07:55 10° 252° (WSW) 00:08:39 435.215
QB50P1 21 Dec 00:09:43 00:13:33 34° 293° (WNW) 00:17:23 145.935-145.965
KKS-1 21 Dec 00:11:01 00:13:08 13° 55° (NE) 00:15:14 437.445
SO-50 21 Dec 00:11:04 00:14:17 18° 340° (NNW) 00:17:34 436.795
SWISSCUBE 21 Dec 00:19:02 00:23:46 63° 71° (ENE) 00:28:31 437.505
ITUPSAT 1 21 Dec 00:19:35 00:24:18 58° 70° (ENE) 00:29:02 437.325
M-CUBED/EXP-1 PRIME 21 Dec 00:21:15 00:25:57 50° 63° (ENE) 00:30:42 437.505
POPSAT HIP 1 21 Dec 00:39:01 00:42:05 20° 299° (WNW) 00:45:09 437.405
TIGRISAT 21 Dec 00:40:07 00:43:02 17° 302° (WNW) 00:45:59 435.000
BEESAT 21 Dec 00:43:56 00:48:45 86° 255° (WSW) 00:53:35 436.000
BUGSAT 1 21 Dec 01:06:01 01:07:52 13° 303° (WNW) 01:09:44 437.445
DUCHIFAT 1 21 Dec 01:08:15 01:09:43 12° 305° (NW) 01:11:11 145.980
O/OREOS (USA 219) 21 Dec 01:21:09 01:25:36 74° 298° (WNW) 01:30:06 437.305
YUBILEINY 21 Dec 01:28:00 01:36:10 42° 293° (WNW) 01:44:22 435.215
Oscar 19 21 Dec 01:29:03 01:34:07 49° 99° (E) 01:39:09 437.125/150
AUBIESAT-1 21 Dec 01:30:24 01:35:05 48° 256° (WSW) 01:39:50 437.475
STARS 21 Dec 01:40:39 01:44:56 56° 71° (ENE) 01:49:15 437.465
Gurwin Techsat 1B 21 Dec 01:42:26 01:46:00 18° 89° (E) 01:49:33 435.225
KKS-1 21 Dec 01:44:39 01:49:06 86° 74° (ENE) 01:53:34 437.445
ITAMSAT 1 21 Dec 01:45:35 01:50:01 28° 94° (E) 01:54:25 435.822/435.867
SO-50 21 Dec 01:54:14 01:56:42 14° 5° (N) 01:59:12 436.795
M-CUBED/EXP-1 PRIME 21 Dec 01:57:00 02:01:08 27° 261° (W) 02:05:19 437.505
SWISSCUBE 21 Dec 01:58:40 02:02:03 19° 270° (W) 02:05:28 437.505
ITUPSAT 1 21 Dec 01:59:00 02:02:34 21° 269° (W) 02:06:09 437.325
BEESAT 21 Dec 02:25:26 02:27:20 12° 274° (W) 02:29:14 436.000
AIST 1 21 Dec 02:27:17 02:30:41 22° 68° (ENE) 02:34:02
MOZHAYETS 4 21 Dec 02:56:50 03:00:22 22° 61° (ENE) 03:03:54
HORYU 2 21 Dec 03:02:51 03:06:59 34° 96° (E) 03:11:05 437.375
O/OREOS (USA 219) 21 Dec 03:03:26 03:05:51 14° 320° (NW) 03:08:17 437.305
Oscar 19 21 Dec 03:08:49 03:13:15 29° 298° (WNW) 03:17:39 437.125/150
